TITAN 3C TRANSTAGE DEB, 26765

Orbit data source: Space-Track

TITAN 3C TRANSTAGE DEB, 26765 is space debris in HEO originally from a launch on Tue, 21 Dec 1965 UTC launched from the Air Force Eastern Test Range (AFETR). Debris objects in space refer to the collection of defunct objects orbiting the Earth. Examples of debris include non-operational satellites, rocket bodies, and fragments generated from explosions, collisions, or faulty payload assembly.

Loading next visibility...
Identifier
26765, 1965-108AU
Orbit
HEO
Country
Flag of USUS
Related business
Manufacturer
Unknown
Mission
Spacecraft
Bus & Motor
Unknown
Mass
Unknown
Launch date (UTC)
1965-12-21 (60 years ago)
Launch vehicle
Unknown
Launch site
Air Force Eastern Test Range (AFETR)
Object type
Payload
Rocket body
Debris
Shape & HBR
Unknown shape, 0.1 m
Radar Cross Section
Medium (>0.1 m² and <1 m²)

Expand to show TLE details & history
Last TLE update: 2 days ago

TLE from 2 days ago
0 TITAN 3C TRANSTAGE DEB
1 26765U 65108AU  26072.21147537 -.00000073  00000-0  47480-2 0  9999
2 26765  27.1148   3.5695 6704357 176.6699 355.9510  2.68907461 19466
Epoch: 2026-03-13T05:04Z
TLE epoch observation values (Epoch: 2026-03-13T05:04:31.471Z)
Latitude
13.19248°
Longitude
-90.49175°
Altitude
1,120.587 km
Speed
9.385 km/s
True Right ascension
10h 25m 57s
True Declination
13° 07' 12"
Sunlit
Object was in full shadow at epoch
Visualization orbit readout
Latitude
Unknown
Longitude
Unknown
Altitude
Unknown
Speed
Unknown
Apparent Right ascension
Unknown
Apparent Declination
Unknown
Sunlit
N/A
Visualization observer readout
Local Sidereal Time
01:04:35
Azimuth
Unknown
Elevation
Unknown
Doppler factor
Unknown
Orbital elements
Apogee altitude
30,116.652 km
Perigee altitude
822.008 km
Semi-major axis
21,847.467 km
Eccentricity
0.67044
Inclination
27.1148°
RAAN
3.5695°
Arg. of periapsis
176.6699°
True anomaly
333.15184°
Mean anomaly
355.951°
Eccentric anomaly
347.89679°
Mean motion
0.67211 °/min
Orbital period
535.63 mins
BSTAR
0.004748
Loading maneuver chart data...
Computing Atmospheric mass density...

Documentation

Showing up to 5 results
|